This is the latest recevied weather packets stored in our database for station/object N6RDS-8. If no packets are shown the sender has not sent any weather packets the latest 10 day(s).
| Time | Temp. | Humidity | Pressure | Rain* | Wind** | Luminosity | Snow |
|---|---|---|---|---|---|---|---|
| 1777239910 | 25° C | 21% | 1013.8 hPa | 0 mm | - | 622 W/m² | - |
| 1777239607 | 25° C | 21% | 1013.7 hPa | 0 mm | - | 631 W/m² | - |
| 1777239303 | 25° C | 21% | 1013.7 hPa | 0 mm | - | 642 W/m² | - |
| 1777239000 | 25.56° C | 21% | 1013.8 hPa | 0 mm | - | 650 W/m² | - |
| 1777238697 | 25.56° C | 21% | 1013.7 hPa | 0 mm | - | 659 W/m² | - |
| 1777238393 | 25° C | 21% | 1013.8 hPa | 0 mm | - | 669 W/m² | - |
| 1777238090 | 25° C | 21% | 1014.1 hPa | 0 mm | - | 677 W/m² | - |
| 1777237787 | 25° C | 22% | 1014 hPa | 0 mm | - | 687 W/m² | - |
| 1777237484 | 25° C | 21% | 1014.2 hPa | 0 mm | - | 695 W/m² | - |
| 1777237181 | 25° C | 21% | 1014.2 hPa | 0 mm | - | 702 W/m² | - |
| 1777236878 | 25° C | 21% | 1014.2 hPa | 0 mm | - | 709 W/m² | - |
| 1777236574 | 24.44° C | 21% | 1014.2 hPa | 0 mm | - | 715 W/m² | - |
| 1777236270 | 25° C | 20% | 1014.3 hPa | 0 mm | - | 721 W/m² | - |
| 1777235966 | 24.44° C | 20% | 1014.2 hPa | 0 mm | - | 726 W/m² | - |
| 1777235663 | 25° C | 20% | 1014.3 hPa | 0 mm | - | 733 W/m² | - |
| 1777235360 | 24.44° C | 19% | 1014.2 hPa | 0 mm | - | 737 W/m² | - |
| 1777235055 | 25° C | 19% | 1014.3 hPa | 0 mm | - | 743 W/m² | - |
| 1777234752 | 24.44° C | 20% | 1014.3 hPa | 0 mm | - | 747 W/m² | - |
| 1777234448 | 25° C | 19% | 1014.5 hPa | 0 mm | - | 751 W/m² | - |
| 1777234143 | 24.44° C | 20% | 1014.5 hPa | 0 mm | - | 754 W/m² | - |
| 1777233839 | 24.44° C | 18% | 1014.3 hPa | 0 mm | - | 757 W/m² | - |
| 1777233536 | 25° C | 19% | 1014.3 hPa | 0 mm | - | 755 W/m² | - |
| 1777233235 | 25° C | 19% | 1014.3 hPa | 0 mm | - | 762 W/m² | - |
| 1777232930 | 24.44° C | 19% | 1014.5 hPa | 0 mm | - | 762 W/m² | - |
| 1777232628 | 25° C | 19% | 1014.7 hPa | 0 mm | - | 765 W/m² | - |
* Rain latest hour (hover to see other rain measurements)
** Current wind speed in m/s (hover to see current wind gust speed)